Tracking 22438 objects as of 24-Feb-2021
HD Live streaming from Space Station
objects crossing your sky now

ATLAS 14E R/B

Track ATLAS 14E R/B now!
10-day predictions


NORAD ID: 15272
Int'l Code: 1984-097B
Perigee: 1,355.8 km
Apogee: 19,999.0 km
Inclination: 64.2 °
Period: 369.2 minutes
Semi major axis: 17048 km
RCS: 2.3359 m2 (large)
Launch date: September 8, 1984
Source: United States (US)
Launch site: AIR FORCE WESTERN TEST RANGE (AFWTR)

Note: This is a ROCKET BODY
aabbcc
Your satellite tracking list
Your tracking list is empty




NASA's NSSDC Master Catalog

Two Line Element Set (TLE):
1 15272U 84097B   21055.29501046  .00000051  00000-0  00000+0 0  9990
2 15272  64.1936  93.4869 5467700 333.8431  51.1482  3.90011652519374
Source of the keplerian elements: AFSPC